Wind_Speed
17 16 16 15 13 10 5 4 9 14 20 19 16 15 14 16 16 16 14 13 12 13 14 15 14 14 14 14 15 14 14 14 14 14 14 14 13 12 11 11 10 9 8 7 6 5 4 4 3
18 18 17 17 15 10 4 6 12 16 22 19 16 15 15 17 17 15 14 14 13 14 15 15 15 16 16 16 16 15 15 15 15 15 15 15 15 14 13 12 11 10 9 8 7 6 5 5 4
18 19 19 18 16 11 8 10 15 19 22 20 18 17 16 17 17 15 14 14 13 14 15 15 15 16 17 18 17 17 16 15 16 16 16 16 16 15 15 14 13 12 10 9 8 8 7 6 6
19 19 19 18 16 12 11 13 19 20 20 20 18 17 17 18 17 16 15 15 14 14 16 16 15 16 18 18 18 18 17 16 16 17 17 18 18 17 16 15 14 13 12 11 10 9 8 8 7
19 19 19 18 15 14 14 18 22 22 20 19 18 18 18 20 17 16 15 16 15 15 16 17 17 18 19 20 19 19 18 18 18 18 18 18 18 18 17 16 15 14 13 12 11 10 10 9 9
19 19 19 16 13 13 17 23 25 23 21 20 19 20 20 21 19 16 17 17 16 16 15 16 17 18 19 20 21 21 21 20 19 19 19 19 19 18 17 17 16 15 14 13 13 12 11 11 10
19 19 18 15 12 14 20 24 25 22 20 20 20 21 21 22 19 18 18 18 18 17 16 16 18 19 20 20 21 22 22 21 21 20 20 20 20 19 18 18 17 16 15 15 14 13 12 12 12
18 18 17 15 15 16 23 26 27 24 22 20 21 21 23 22 19 18 18 19 18 18 18 17 18 19 19 20 20 21 22 22 22 22 21 21 21 20 19 19 18 18 17 16 16 15 14 13 13
16 16 14 12 15 17 23 26 24 24 23 23 23 23 26 24 21 20 20 21 20 19 18 18 19 20 20 22 22 21 22 23 23 23 23 22 22 21 20 20 20 19 18 18 17 16 15 15 14
15 14 11 16 20 22 22 24 22 22 21 20 22 24 25 23 20 20 22 22 22 22 20 19 20 20 21 21 22 23 23 24 23 24 24 24 23 22 21 21 21 20 19 19 18 17 17 16 16
14 15 16 20 22 23 22 22 21 21 19 21 23 24 26 23 21 22 22 22 23 23 22 21 20 21 22 22 22 22 23 24 24 25 24 24 23 23 22 22 21 21 20 20 19 19 18 18 17
14 16 18 20 21 21 21 21 22 21 20 24 24 26 27 24 22 23 23 23 23 24 23 21 22 23 24 23 23 24 23 24 24 24 24 24 23 23 22 22 22 22 21 21 20 20 20 20 19
14 15 18 19 20 20 20 21 22 22 23 25 25 26 26 24 24 26 26 25 25 26 25 25 24 24 24 23 24 24 24 24 25 25 25 25 24 24 23 22 23 22 22 22 22 21 21 21 21
14 15 16 17 19 19 20 22 23 23 24 25 25 27 27 26 26 28 27 26 27 27 27 28 26 25 24 24 24 24 24 24 25 25 25 24 24 25 24 22 22 22 22 23 22 22 22 21 22
13 14 15 17 18 19 20 20 22 23 25 26 27 28 28 28 28 28 27 28 28 28 28 28 27 26 26 25 25 25 25 24 24 25 24 24 25 25 26 23 22 23 24 23 23 23 23 23 23
11 12 12 14 18 19 18 17 20 24 25 26 27 28 28 30 29 29 30 30 30 29 30 29 29 29 26 25 25 25 25 24 24 25 24 24 24 25 26 25 25 24 24 24 24 24 24 25 25
8 9 8 12 20 21 20 17 19 24 26 27 28 29 29 30 29 31 32 31 31 30 30 31 30 29 28 27 27 27 26 26 26 26 26 25 24 25 26 27 27 26 26 25 25 26 26 27 26
7 10 11 15 19 22 21 19 20 24 27 28 28 28 29 29 30 31 32 32 33 33 32 31 31 31 29 28 27 25 25 25 26 27 26 25 25 26 26 27 27 27 27 26 26 26 27 28 28
13 15 16 16 18 22 22 21 21 24 26 25 25 26 28 28 29 31 31 32 33 34 34 32 32 32 31 30 27 24 24 24 25 26 26 26 27 27 28 27 27 28 28 27 27 27 28 28 29
14 14 14 15 18 21 21 21 22 23 24 25 25 26 26 28 29 30 31 32 33 34 34 34 34 33 32 30 27 26 25 25 24 25 26 27 28 29 27 28 29 29 29 29 29 29 30 30 30
13 13 14 16 18 21 20 20 22 22 23 24 25 25 27 28 28 29 30 30 32 33 34 34 33 33 32 30 29 27 27 27 27 25 25 27 28 30 31 30 30 31 31 31 31 30 31 31 31
13 14 16 17 17 17 18 20 20 22 23 24 24 25 25 26 25 27 28 29 30 32 33 33 34 33 32 32 32 30 27 27 28 27 27 27 28 29 30 30 31 32 32 31 31 32 32 32 33
14 15 16 16 16 16 17 20 20 23 24 23 23 24 22 23 24 25 27 29 30 31 32 33 34 34 33 32 32 31 30 30 28 28 29 29 29 28 28 29 30 32 33 32 33 33 33 33 35
15 14 14 13 15 17 17 19 20 24 23 24 23 21 20 22 24 25 26 28 29 29 31 32 33 33 34 34 33 32 31 31 30 29 30 30 30 29 29 29 30 33 34 34 34 35 36 36 36
15 15 14 15 16 17 16 19 22 24 24 24 22 20 20 21 23 24 26 27 28 29 31 32 32 33 33 33 32 32 31 31 31 31 31 30 30 30 30 30 30 32 33 34 34 36 37 37 38
15 15 14 16 17 17 18 20 21 21 23 21 21 20 20 20 22 24 25 27 28 29 31 32 32 33 33 33 33 33 33 32 32 32 32 32 31 31 31 31 31 32 32 33 34 34 35 37 38
14 13 14 16 16 18 19 20 21 20 18 19 19 20 20 21 22 23 24 26 28 29 30 31 32 33 34 33 32 32 32 32 32 32 32 32 31 31 31 32 32 32 31 31 31 33 34 35 36
12 13 14 14 17 18 18 18 18 18 18 18 19 19 19 20 21 23 24 25 26 27 27 29 29 30 30 31 32 31 31 31 31 31 31 30 30 30 29 29 29 29 30 31 31 31 32 34 34
11 12 13 14 16 18 19 17 18 18 19 19 19 19 19 20 21 23 23 24 25 26 27 28 28 29 30 30 31 31 30 30 30 30 30 30 30 29 28 28 28 27 28 28 29 29 30 31 32
11 11 12 13 15 17 19 20 19 18 18 18 18 19 20 20 21 22 23 24 24 25 26 27 27 28 29 30 30 31 30 30 30 29 29 29 29 29 29 28 29 28 27 28 29 29 30 30 31
Wind_Direction
255 253 251 250 249 249 245 242 246 258 267 268 267 263 261 263 266 269 270 273 273 270 270 267 262 256 251 244 239 238 238 239 241 243 245 247 248 246 244 244 245 245 244 244 246 243 239 239 244
251 250 249 248 246 240 255 261 247 251 262 271 272 266 261 264 270 275 276 278 273 268 269 266 264 257 249 247 243 241 241 242 244 246 248 249 250 250 249 250 250 248 246 248 248 243 241 241 243
249 249 248 247 243 232 219 233 241 248 261 270 272 270 265 266 272 274 273 273 270 267 268 267 269 261 253 250 248 245 243 245 246 249 250 251 252 252 251 252 252 251 251 250 249 246 244 242 242
250 249 249 247 242 227 224 242 246 253 264 271 271 270 269 266 269 270 268 269 269 267 266 266 265 264 259 253 249 247 246 246 247 250 251 252 253 253 254 254 255 254 253 250 249 249 247 243 242
250 250 249 248 243 229 227 241 248 251 262 271 273 269 266 269 266 265 266 266 268 267 265 265 263 261 259 255 251 249 248 248 248 250 251 252 253 255 256 257 256 255 254 251 251 252 249 245 243
250 249 247 246 246 245 241 244 248 254 257 261 267 268 265 269 268 264 264 265 264 263 264 267 265 262 260 258 254 252 250 251 250 250 252 253 254 255 256 257 256 255 254 253 253 252 249 246 245
248 247 245 240 236 242 246 248 250 253 254 257 254 260 266 264 263 264 263 262 260 260 261 264 264 264 261 260 257 254 250 250 252 253 255 255 255 255 256 256 255 254 254 253 252 252 250 248 248
247 247 244 235 232 234 245 249 253 254 248 248 252 254 257 262 262 260 260 261 259 261 260 261 263 263 261 260 259 257 254 252 252 254 255 256 256 256 256 256 255 254 254 254 252 250 250 250 249
245 245 244 238 239 239 247 252 253 254 253 248 252 252 254 259 259 255 255 258 259 261 260 260 263 263 259 258 258 259 257 255 255 256 255 256 257 256 256 256 254 254 254 254 252 251 249 249 250
241 237 236 233 232 234 245 255 253 256 257 254 252 254 257 258 253 251 253 255 258 262 258 260 264 263 260 257 256 257 257 256 256 256 255 255 256 256 255 255 253 253 254 253 252 250 249 250 251
236 232 231 238 241 245 250 257 259 257 253 249 249 252 257 256 254 253 254 254 256 260 262 260 264 264 260 258 257 254 254 252 253 255 255 254 255 254 254 254 254 253 252 251 251 251 250 251 252
240 238 242 247 249 251 252 256 258 257 251 249 250 251 253 252 253 253 253 251 255 258 260 261 263 261 257 257 256 254 255 251 250 252 251 251 253 253 252 253 251 250 249 249 251 251 251 251 253
249 251 252 254 257 257 257 259 260 259 256 254 254 255 254 255 253 251 252 253 254 258 259 261 263 261 254 256 256 257 256 255 253 251 250 252 253 255 253 252 249 248 247 247 249 251 252 253 254
256 260 263 264 264 264 263 262 261 262 259 258 256 254 252 254 253 253 254 254 255 255 256 259 258 259 259 259 259 260 257 258 254 254 254 254 252 253 250 248 249 247 248 249 250 250 251 253 256
266 271 272 272 270 270 268 265 265 264 262 260 257 256 254 254 254 256 256 254 253 254 255 256 258 259 260 258 257 257 256 257 258 258 258 257 254 251 250 250 249 250 253 254 250 250 251 254 257
275 279 285 287 283 280 276 271 269 265 267 265 261 258 256 254 254 254 253 253 253 253 254 255 258 258 258 258 261 259 257 257 261 260 260 262 260 257 255 254 253 253 254 254 251 254 255 255 256
300 301 292 277 283 286 281 272 264 265 268 267 265 260 255 256 254 252 251 251 252 253 252 255 257 260 259 259 262 260 256 257 260 259 257 260 262 261 258 259 259 257 256 255 256 256 256 257 257
266 267 262 258 273 280 281 274 267 265 266 269 268 263 256 256 254 253 252 251 251 251 252 254 257 259 261 261 260 256 257 258 260 259 258 258 259 260 259 262 261 258 258 257 256 255 255 256 257
246 245 250 259 264 270 275 275 271 266 269 272 269 263 258 257 254 253 252 251 250 250 250 252 254 257 258 258 260 262 263 261 261 258 259 258 258 258 260 259 259 258 256 257 257 255 256 257 257
265 262 261 267 269 272 276 276 276 275 272 271 268 266 264 259 255 253 252 250 250 251 251 252 254 256 259 261 263 266 267 265 265 264 260 257 258 257 258 258 260 261 258 257 259 256 256 256 257
273 272 268 266 270 278 282 281 281 277 276 270 268 265 262 258 255 252 252 252 250 251 252 252 254 258 261 264 265 266 267 268 269 267 265 263 262 259 259 258 259 259 260 260 258 257 257 256 257
278 272 272 273 272 277 282 281 275 276 279 275 269 265 260 257 255 254 253 254 253 253 254 254 254 256 259 262 264 265 268 273 272 270 270 271 269 266 264 261 260 260 260 261 260 260 260 258 258
276 274 275 278 276 272 272 276 278 277 278 278 274 270 264 262 258 257 255 254 254 254 255 255 255 256 258 261 262 264 267 270 270 271 272 272 273 272 268 267 265 264 263 263 261 261 259 260 262
287 283 280 280 278 272 268 269 269 273 274 280 278 276 272 265 260 258 255 254 255 255 254 255 255 256 258 260 262 264 266 268 270 272 273 273 274 273 272 271 268 265 264 264 264 262 261 260 263
289 289 286 283 280 283 268 267 267 272 277 279 278 280 280 271 264 260 257 256 257 255 255 255 255 258 260 261 263 265 268 268 270 272 273 275 275 273 271 271 269 266 265 264 265 264 264 263 263
287 285 280 283 286 291 287 276 270 275 277 277 278 282 283 274 266 264 264 261 259 257 255 256 258 259 260 262 264 267 268 269 270 270 272 273 273 272 271 269 267 266 266 264 266 266 264 262 261
287 284 277 280 288 291 292 283 285 278 282 274 278 281 281 276 268 267 267 265 263 261 259 258 259 260 261 263 265 266 269 270 271 271 271 273 270 272 271 269 269 268 266 265 266 265 262 262 262
289 279 280 285 292 293 291 287 287 286 293 292 288 285 282 277 274 271 270 267 264 263 263 260 259 261 262 263 264 266 270 271 272 273 273 272 270 272 273 272 271 271 269 268 268 267 266 265 265
288 289 288 284 285 291 295 292 293 292 293 293 289 285 285 282 277 276 274 271 267 267 267 265 263 263 262 263 265 266 268 270 271 274 276 275 275 274 274 274 274 273 271 271 270 268 268 269 268
283 285 287 289 293 298 297 294 293 295 298 297 295 292 291 286 281 279 277 274 271 270 269 267 265 265 264 264 265 266 268 271 273 274 274 275 276 277 274 272 272 272 271 273 272 270 270 271 271
Height
5872 5873 5874 5876 5879 5881 5882 5884 5886 5885 5884 5882 5883 5883 5883 5882 5882 5883 5881 5879 5880 5881 5882 5883 5883 5884 5885 5886 5886 5887 5888 5889 5889 5890 5891 5891 5891 5891 5891 5891 5891 5891 5891 5891 5891 5891 5891 5891 5891
5869 5870 5872 5874 5876 5878 5881 5883 5884 5883 5880 5880 5880 5881 5880 5879 5878 5878 5878 5878 5879 5880 5880 5881 5881 5882 5883 5884 5885 5886 5886 5887 5888 5888 5889 5890 5890 5890 5890 5890 5890 5890 5890 5890 5890 5890 5890 5890 5891
5865 5866 5868 5870 5873 5875 5878 5881 5881 5879 5877 5878 5878 5878 5878 5877 5876 5876 5877 5877 5877 5878 5878 5879 5879 5880 5881 5882 5883 5884 5884 5885 5886 5887 5887 5888 5888 5888 5888 5888 5888 5888 5889 5889 5889 5889 5889 5890 5890
5861 5863 5865 5868 5870 5873 5875 5877 5877 5876 5875 5875 5876 5875 5874 5874 5874 5875 5875 5875 5876 5876 5876 5877 5877 5878 5879 5880 5880 5881 5882 5883 5883 5884 5885 5885 5886 5886 5887 5887 5887 5887 5887 5887 5888 5888 5888 5889 5889
5857 5860 5862 5864 5867 5869 5872 5874 5872 5873 5873 5873 5873 5872 5871 5871 5871 5872 5872 5873 5873 5874 5874 5874 5875 5875 5876 5877 5878 5879 5879 5880 5881 5881 5882 5883 5883 5884 5884 5885 5885 5885 5886 5886 5886 5887 5887 5888 5888
5854 5856 5858 5860 5863 5867 5869 5869 5868 5869 5870 5870 5871 5869 5868 5868 5868 5869 5870 5870 5870 5871 5871 5871 5872 5872 5873 5874 5875 5876 5877 5877 5878 5879 5879 5880 5881 5881 5882 5882 5883 5883 5884 5884 5884 5885 5886 5886 5887
5851 5852 5854 5857 5861 5865 5866 5864 5864 5866 5866 5867 5867 5866 5865 5864 5865 5866 5867 5867 5867 5868 5868 5868 5869 5869 5870 5871 5872 5873 5873 5874 5875 5876 5877 5877 5878 5878 5879 5879 5880 5881 5881 5882 5882 5883 5884 5885 5885
5846 5849 5850 5853 5857 5860 5859 5859 5859 5860 5861 5862 5862 5863 5861 5859 5861 5863 5863 5863 5863 5864 5865 5865 5865 5866 5867 5867 5868 5869 5870 5871 5872 5873 5874 5874 5875 5875 5876 5877 5877 5878 5879 5879 5880 5881 5882 5883 5883
5842 5846 5847 5851 5854 5855 5854 5853 5854 5854 5856 5857 5857 5857 5856 5857 5858 5859 5860 5860 5860 5860 5860 5861 5862 5862 5863 5863 5864 5865 5866 5867 5868 5869 5870 5871 5872 5872 5873 5874 5874 5875 5876 5877 5878 5879 5879 5880 5881
5839 5841 5844 5846 5847 5848 5848 5848 5849 5850 5851 5853 5853 5852 5852 5853 5853 5855 5855 5855 5856 5855 5855 5856 5857 5858 5859 5859 5859 5861 5862 5863 5864 5865 5866 5867 5868 5869 5870 5870 5871 5872 5873 5874 5875 5876 5877 5878 5879
5835 5837 5838 5839 5841 5842 5843 5843 5844 5845 5847 5848 5848 5848 5847 5849 5850 5851 5851 5849 5850 5851 5851 5849 5852 5854 5854 5855 5855 5856 5857 5858 5860 5861 5862 5863 5864 5865 5866 5866 5867 5868 5869 5871 5871 5873 5874 5875 5876
5832 5833 5833 5834 5836 5837 5838 5839 5839 5840 5842 5842 5842 5842 5842 5843 5845 5846 5846 5846 5847 5847 5847 5845 5846 5848 5849 5850 5851 5851 5852 5853 5855 5856 5857 5859 5859 5860 5862 5862 5863 5864 5865 5867 5868 5869 5870 5871 5873
5828 5829 5830 5830 5831 5832 5833 5833 5834 5835 5836 5836 5837 5837 5836 5838 5840 5841 5841 5842 5843 5843 5843 5843 5843 5842 5844 5845 5845 5846 5847 5849 5850 5851 5853 5855 5856 5856 5857 5857 5857 5858 5860 5862 5864 5865 5867 5867 5869
5824 5825 5826 5826 5827 5828 5828 5828 5829 5829 5830 5831 5832 5832 5832 5833 5834 5835 5836 5837 5838 5839 5838 5837 5838 5838 5839 5841 5841 5842 5843 5844 5845 5846 5848 5849 5851 5851 5852 5853 5854 5854 5856 5858 5859 5861 5863 5863 5864
5821 5822 5823 5822 5823 5823 5823 5823 5824 5824 5823 5824 5825 5825 5827 5828 5829 5829 5830 5831 5832 5833 5833 5831 5833 5834 5834 5836 5837 5839 5839 5839 5840 5841 5842 5844 5846 5847 5847 5847 5849 5851 5852 5854 5855 5857 5858 5860 5861
5819 5819 5820 5819 5818 5818 5820 5820 5819 5818 5818 5818 5818 5819 5820 5821 5823 5824 5824 5825 5826 5827 5828 5827 5829 5830 5830 5831 5833 5834 5835 5835 5836 5837 5838 5840 5841 5842 5843 5844 5845 5846 5848 5849 5851 5853 5854 5855 5856
5816 5817 5819 5819 5816 5815 5815 5814 5814 5813 5812 5812 5812 5812 5814 5815 5817 5817 5817 5819 5820 5821 5822 5822 5823 5824 5825 5825 5827 5828 5830 5831 5832 5832 5833 5834 5836 5837 5838 5839 5840 5842 5844 5845 5846 5847 5849 5850 5851
5816 5817 5818 5818 5815 5812 5810 5809 5809 5808 5807 5805 5805 5804 5805 5808 5810 5810 5811 5812 5814 5815 5817 5818 5818 5820 5820 5821 5821 5822 5823 5825 5826 5827 5827 5829 5830 5831 5832 5833 5835 5836 5838 5839 5840 5841 5842 5844 5845
5811 5812 5813 5813 5811 5808 5806 5805 5803 5802 5801 5800 5800 5799 5799 5802 5803 5804 5805 5806 5807 5809 5809 5811 5813 5814 5815 5815 5815 5816 5817 5818 5820 5821 5821 5822 5823 5825 5826 5827 5829 5829 5832 5833 5835 5835 5837 5838 5839
5806 5807 5807 5808 5805 5803 5801 5800 5798 5796 5796 5795 5794 5794 5794 5795 5796 5797 5798 5799 5801 5802 5802 5804 5806 5807 5808 5809 5810 5811 5812 5813 5814 5814 5815 5817 5818 5819 5819 5821 5823 5824 5826 5828 5829 5829 5830 5831 5833
5802 5803 5803 5802 5801 5798 5797 5796 5793 5791 5789 5789 5788 5788 5788 5788 5790 5791 5792 5792 5794 5796 5797 5798 5799 5801 5801 5802 5804 5805 5806 5807 5808 5809 5810 5811 5812 5813 5814 5815 5817 5818 5819 5821 5822 5823 5824 5825 5826
5799 5799 5797 5796 5796 5795 5794 5791 5790 5786 5785 5783 5782 5782 5781 5782 5783 5785 5786 5787 5788 5790 5791 5792 5793 5795 5796 5797 5798 5799 5801 5801 5802 5804 5805 5806 5806 5807 5808 5809 5809 5811 5813 5814 5815 5816 5817 5818 5819
5795 5794 5793 5791 5790 5790 5789 5787 5786 5782 5780 5778 5777 5776 5777 5778 5778 5780 5781 5782 5782 5783 5785 5786 5787 5789 5790 5791 5793 5794 5796 5797 5797 5798 5799 5800 5800 5801 5801 5802 5803 5804 5806 5807 5808 5809 5810 5811 5811
5791 5789 5788 5787 5786 5785 5785 5783 5781 5776 5774 5774 5773 5772 5773 5773 5773 5774 5775 5776 5776 5777 5779 5780 5781 5782 5784 5786 5787 5788 5790 5790 5791 5792 5793 5793 5794 5794 5795 5795 5796 5797 5798 5799 5800 5801 5802 5803 5803
5788 5787 5785 5784 5782 5781 5779 5778 5776 5772 5771 5769 5767 5768 5768 5768 5769 5769 5770 5771 5771 5772 5773 5774 5775 5776 5777 5779 5780 5781 5782 5783 5784 5785 5786 5786 5787 5787 5788 5789 5789 5790 5790 5791 5792 5793 5793 5794 5795
5784 5783 5783 5781 5779 5777 5775 5773 5771 5768 5766 5765 5764 5764 5765 5764 5764 5765 5765 5765 5766 5767 5767 5767 5768 5770 5771 5772 5773 5774 5775 5776 5777 5778 5778 5779 5779 5780 5780 5781 5782 5782 5782 5783 5784 5784 5785 5785 5786
5782 5780 5780 5778 5776 5775 5772 5769 5765 5764 5761 5760 5760 5761 5761 5761 5760 5760 5760 5760 5760 5760 5760 5761 5762 5763 5764 5766 5767 5768 5768 5769 5769 5770 5770 5771 5772 5772 5772 5773 5774 5774 5774 5775 5775 5776 5776 5777 5778
5779 5777 5777 5775 5773 5770 5769 5765 5762 5761 5759 5757 5756 5756 5757 5757 5756 5755 5755 5755 5755 5754 5754 5753 5755 5756 5758 5759 5760 5761 5762 5762 5762 5763 5763 5764 5764 5764 5765 5766 5766 5766 5767 5768 5768 5769 5769 5770 5770
5776 5775 5773 5772 5770 5768 5765 5764 5760 5759 5757 5755 5753 5753 5753 5752 5751 5751 5750 5750 5749 5749 5748 5749 5749 5750 5751 5752 5753 5754 5755 5755 5756 5756 5756 5756 5757 5757 5758 5759 5759 5759 5760 5760 5761 5761 5761 5762 5762
5773 5772 5771 5770 5768 5766 5763 5763 5757 5755 5753 5752 5750 5749 5748 5747 5746 5746 5745 5744 5743 5743 5743 5743 5743 5744 5744 5745 5746 5746 5747 5748 5749 5749 5749 5749 5750 5750 5751 5752 5752 5752 5753 5753 5753 5754 5754 5754 5755